Время (UTC), дата Ветер
(°,м/с) 
Видим.   Явления Облачность Т
(°С)
Тd
(°С)
f(%) Тe
(°С)
Pmin
(гПа)
dP
(гПа)
Po
(мм)
O2
(г/м3)
Тmin Tmax R s Состояние
почвы
00 01.03.14 тихо ()   10 км    10/6 480 м кучево-дожд., средняя 
[Cb calv|Ac und]
+3.3 +2.3 93 +3  1021  725  288           
03 01.03.14 110 (В) 4000 м  дымка  10/4 600 м средняя 
[Sc diur, vesp|Ac und]
+2.3 +1.6 95 +3  1021.9  0.6  725  289  +2.2    0.0     
06 01.03.14 110 (В) 2000 м  дымка{туман}  10/10 120 м 
[St]
+2.9 +2.2 95 +2  1022.5  0.7  725  289  +2         
09 01.03.14 110 (В) 10 км    8/4 200 м средняя 
[St|Ac und]
+5.3 +2.3 81 +4  1021.7  -0.3  725  286           
12 01.03.14 120 (ЮВ) 20000 м    6/3 300 м средняя 
[Sc|Ac As]
+8.3 +2.1 65 +8  1020.2  -0.8  725  283           
15 01.03.14 120 (ЮВ) 20000 м    4/0 средняя 
[Ac trans]
+4.7 +1.8 81 +4  1021.4  0.4  725  287    +8.5       
18 01.03.14 120 (ЮВ) 20000 м    3/0 средняя 
[Ac trans]
+1.3 +0.3 93 -1  1022.1  0.1  725  291           
21 01.03.14 130 (ЮВ) 5{11}  20000 м    8/4 270 м средняя 
[St|Ac trans]
+2.6 +1.5 93 1020.3  -1.4  724  289           
00 02.03.14 140 (ЮВ) 20000 м    8/5 270 м средняя 
[St|Ac trans]
+1.1 +0.2 94 -1  1019.7  -0.9  723  290           
03 02.03.14 130 (ЮВ) 20000 м    10/0 средняя 
[Ac und]
+1.2 -0.1 91 -1  1019  -0.6  723  290  +0.9      мокрый или
старый снег
10-40% 
06 02.03.14 130 (ЮВ) 20000 м    9/0 средняя 
[Ac trans]
+2.5 +0.6 87 1018.6  0.1  723  288           
09 02.03.14 110 (В) 20000 м    10/0 средняя 
[Ac As]
+6.3 -0.1 64 +4  1017  -0.8  722  284           
12 02.03.14 110 (В) 9-11{12}  20000 м    9/0 средняя, верхняя 
[Ac trans|Ci fib]
+7.2 -1.9 52 +4  1014.8  -1.9  721  283           
15 02.03.14 090 (В) 7{13}  20000 м    8/0 средняя, верхняя 
[Ac trans|Ci fib]
+3.6 -1.6 69 1014.7  -0.8  720  286    +8       
18 02.03.14 100 (В) 6{10}  20000 м    8/0 средняя 
[Ac trans]
+1.2 -1.6 82 -2  1014.5  -0.7  720  289           
21 02.03.14 110 (В) 10 км    10/0 средняя 
[Ac und]
-0 -1.1 92 -3  1013.6  -1.1  719  290           
00 03.03.14 120 (ЮВ) 4000 м    10/4 300 м средняя 
[St|Ac und]
-0.1 -1 94 -3  1012.8  -0.8  718  289           
03 03.03.14 130 (ЮВ) 4000 м  дымка  10/10 100 м 
[St]
+0.2 -0.5 95 -3  1012.8  0.1  718  289  -0.3         
06 03.03.14 130 (ЮВ) 6{10}  10 км  слаб. дождь  10/6 270 м средняя 
[Sc|Ac und]
+1.2 +0.2 93 -2  1014.1  1.4  719  288           
09 03.03.14 130 (ЮВ) 8-10{11}  20000 м  {дождь}  9/0 средняя 
[Ac trans]
+4.9 +1.1 76 +2  1012.8  -0.4  719  284           
12 03.03.14 140 (ЮВ) 7{11}  20000 м  {дождь}  10/0 средняя 
[Ac und]
+6.6 +2.7 76 +4  1011.8  -0.6  718  282           
15 03.03.14 130 (ЮВ) 6{10}  20000 м    10/0 средняя 
[Ac und]
+3.8 +2.1 89 +1  1012.6  0.2  719  285    +7.2  0.0     
18 03.03.14 130 (ЮВ) 10 км    10/10 120 м 
[St]
+2.3 +1.6 95 -1  1012.8  0.2  719  287           
21 03.03.14 140 (ЮВ) 2000 м  дымка  10/10 60 м 
[St]
+2.2 +1.6 96 1012.2  -0.6  718  287           
00 04.03.14 140 (ЮВ) 5{10}  10 км    10/10 180 м 
[St]
+1.7 +1 95 -1  1011.5  -0.7  717  287           
03 04.03.14 120 (ЮВ) 4000 м  дымка  10/10 100 м 
[St]
+2 +1.3 95 -1  1011.1  -0.3  717  287  +1.4         
06 04.03.14 110 (В) 7{10}  4000 м  дымка  10/5 200 м средняя 
[St|Ac und]
+3.4 +2.5 94 1010.8  717  285           
09 04.03.14 130 (ЮВ) 6{10}  10 км    10/4 300 м средняя, верхняя 
[Sc|Ac As|Cs]
+6.7 +2.8 76 +5  1010.2  0.1  717  282           
12 04.03.14 110 (В) 10 км    10/5 300 м средняя, верхняя 
[St|As trans|Cs]
+6.7 +3.5 80 +4  1009.2  -0.9  717  281           
15 04.03.14 100 (В) 10 км    10/8 270 м средняя 
[St|Ac und]
+4 +2.3 89 +1  1010.6  0.9  717  284    +7.4       
18 04.03.14 140 (ЮВ) 10 км    10/10 210 м 
[St]
+2.9 +1.8 92 1011.2  0.3  717  286           
21 04.03.14 130 (ЮВ) 10 км    10/10 100 м 
[St]
+3.1 +2.3 94 1010.8  -0.3  717  285           
00 05.03.14 130 (ЮВ) 5{10}  10 км    10/8 180 м средняя 
[St|Ac und]
+3.1 +2.4 95 +1  1011.9  718  286           
03 05.03.14 120 (ЮВ) 10 км    10/3 200 м средняя 
[St|Ac und]
+3 +2.3 95 +1  1013.3  1.3  719  286  +2.8         
06 05.03.14 080 (В) 10 км    10/0 средняя 
[As trans]
+5.4 +3.4 87 +4  1014.2  1.3  720  284           
09 05.03.14 300 (СЗ) 20000 м    10/0 средняя 
[As trans]
+9.7 +5.5 75 +9  1014.6  1.3  721  280           
12 05.03.14 320 (СЗ) 7{11}  10 км  слаб. ливневой дождь  10/8 240 м кучево-дожд., средняя 
[Cb calv|As trans]
+9.4 +7.6 89 +7  1015.3  0.5  721  280           
15 05.03.14 020 (С) 10 км    10/4 180 м кучево-дожд., средняя 
[Cb calv|Ac und]
+7.9 +6.7 92 +8  1017.7  723  282    +10.2  0.0     
18 05.03.14 150 (ЮВ) 10 км    10/5 450 м средняя 
[Sc diur, vesp|Ac und]
+7.1 +6.3 95 +7  1018.3  0.4  723  283           
21 05.03.14 150 (ЮВ) 20000 м  {ливн. осадки}  9/0 средняя 
[Ac trans]
+7.6 +5.9 89 +8  1017.5  -0.7  723  282           
00 06.03.14 тихо ()   20000 м  {ливн. осадки}  6/0 средняя 
[Ac trans]
+5.3 +4.5 95 +5  1017.9  0.1  723  285           
03 06.03.14 140 (ЮВ) 0100 м  туман  н/о 
+4.5 +4 97 +4  1018.5  0.5  723  286  +2.9       
06 06.03.14 040 (СВ) 0200 м  туман  8/8 60 м 
[St]
+5.4 +4.8 96 +4  1019.7  1.3  724  285           
09 06.03.14 090 (В) 10 км  {туман}  6/6 360 м 
[St]
+9.5 +5 74 +8  1018.9  1.3  724  281           
12 06.03.14 090 (В) 20000 м  {туман}  4/4 600 м 
[Sc]
+11.6 +5 64 +10  1018.5  724  279           
15 06.03.14 060 (СВ) 20000 м    6/0 средняя, верхняя 
[Ac trans|Ci fib]
+6 +3.5 84 +3  1020.4  0.7  724  285    +11.8       
18 06.03.14 080 (В) 10 км    3/0 средняя 
[Ac trans]
+3.1 +1.8 91 +1  1022.1  1.1  725  289           
21 06.03.14 070 (В) 5000 м  дымка  4/0 средняя 
[Ac trans]
+0.4 -0.4 94 -3  1023.2  0.5  726  292           
00 07.03.14 090 (В) 5000 м  дымка  3/3 300 м 
[St]
-1.3 -2.8 90 -5  1024.5  0.8  726  294           
03 07.03.14 080 (В) 20000 м    4/4 300 м 
[Sc]
-2.3 -3.9 89 -6  1025.9  1.2  727  296  -2.3         
06 07.03.14 090 (В) 20000 м    10/3 300 м средняя, верхняя 
[Sc|Ac trans|Ci fib]
-1.1 -2.5 90 -5  1027.3  1.5  728  295  -2.4         
09 07.03.14 080 (В) 9-12{12}  10 км    10/3 1000 м верхняя 
[Sc|Cs]
+3.4 -2.3 66 1027.9  1.5  729  290           
12 07.03.14 100 (В) 11-15{15}  20000 м    8/3 1000 м верхняя 
[Sc|Ci fib]
+6.1 -4.5 47 +2  1028.1  0.6  730  288           
15 07.03.14 100 (В) 9-13  20000 м    6/0 верхняя 
[Ci fib]
+3.4 -5.1 54 1030.2  1.5  731  291    +6.3       
18 07.03.14 090 (В) 9-11{13}  20000 м    8/0 верхняя 
[Ci fib]
-0.1 -6.3 63 -5  1031.9  732  296           
21 07.03.14 090 (В) 8{13}  20000 м    ясно 
-1.8 -5.9 74 -6  1031.8  -0.5  731  297           
00 08.03.14 100 (В) 9-12{13}  20000 м    ясно 
-2.5 -7.3 70 -8  1031.2  -0.7  731  298           
03 08.03.14 100 (В) 11-14{14}  20000 м    1/0 средняя 
[Ac trans]
-3.3 -8.7 66 -9  1031.4  731  299  -3.3         
06 08.03.14 100 (В) 13-17{17}  20000 м    4/3 200 м верхняя 
[St|Ci fib]
-1.9 -5.5 76 -8  1031.2  0.2  731  297  -4         
09 08.03.14 100 (В) 14-20{20}  20000 м    8/0 верхняя 
[Ci]
+2.6 -6.3 52 -3  1029.6  -0.6  730  292           
12 08.03.14 100 (В) 13-19{21}  20000 м    8/0 верхняя 
[Ci]
+5.1 -5.7 46 +1  1027.8  -1.2  730  289           
15 08.03.14 100 (В) 11-14  20000 м    8/0 верхняя 
[Ci sp]
+2.9 -5 56 -2  1027.3  -0.9  729  291    +5.4       
18 08.03.14 100 (В) 10-14{15}  20000 м    8/0 средняя 
[Ac trans]
-0.2 -3.4 79 -5  1026.5  -1.3  728  294           
21 08.03.14 120 (ЮВ) 10-13{14}  20000 м    8/5 420 м средняя 
[St|Ac trans]
-1.1 -3 87 -6  1024.8  -1.3  727  294           
00 09.03.14 130 (ЮВ) 7{13}  10 км    10/10 100 м 
[St]
-1.5 -2.4 94 -6  1023.2  -1.7  725  294           
03 09.03.14 130 (ЮВ) 4000 м  дымка  10/10 100 м 
[St]
-1.4 -2.1 95 -6  1022.6  -0.5  725  294  -1.5         
06 09.03.14 120 (ЮВ) 7{11}  4000 м  дымка  10/10 120 м 
[St]
-0.6 -1.8 91 -5  1023.5  726  293           
09 09.03.14 130 (ЮВ) 8-11{12}  10 км    10/8 210 м средняя 
[St|Ac und]
+1.8 -1.1 81 -2  1022.5  -0.5  725  290           
12 09.03.14 120 (ЮВ) 6{12}  20000 м    8/0 верхняя 
[Ci fib]
+6.9 +0.6 64 +5  1020.8  -0.6  725  285           
15 09.03.14 140 (ЮВ) 20000 м    8/0 средняя, верхняя 
[Ac trans|Ci fib]
+4.3 +0.2 75 +2  1021.5  0.2  725  287    +7.6       
18 09.03.14 220 (ЮЗ) 20000 м    10/0 средняя, верхняя 
[Ac trans|Cs]
+3.9 +0.3 77 +3  1022.8  1.2  726  288           
21 09.03.14 180 (Ю) 20000 м    3/0 верхняя 
[Ci fib]
+0.8 -2 81 1022.1  -1.4  725  291           
00 10.03.14 010 (С) 20000 м    ясно 
+0.4 -0.8 92 -1  1022.4  0.3  725  292           
03 10.03.14 330 (СЗ) 0100 м  туман  ?/?  
+0.4 -0.2 96 -1  1023.5  1.1  726  292  -0.6         
06 10.03.14 010 (С) 0100 м  туман  ?/?  
+1.1 +0.6 97 -2  1023.7  0.3  726  291           
09 10.03.14 350 (С) 0100 м  туман{морось} [диам. гололёда 0 мм]  ?/?  
-0.8 -1.3 96 -3  1023.4  -0.7  726  293           
12 10.03.14 030 (СВ) 0050 м  туман  ?/? 100 
-0.8 -1.2 97 -3  1022.2  -1.1  725  293           
15 10.03.14 050 (СВ) 0100 м  туман [диам. гололёда 2 мм]  ?/?  
-1.1 -1.5 97 -4  1021.2  -1.1  724  293    +1.1  0.0     
18 10.03.14 060 (СВ) 0100 м  туман [диам. гололёда 3 мм]  ?/?  
-1.3 -1.8 96 -4  1019.5  -1.6  723  293           
21 10.03.14 030 (СВ) 0050 м  сильн. снег{туман} [диам. гололёда 3 мм]  ?/?  
-0.9 -1.4 96 -3  1016.4  -2.8  721  291           
00 11.03.14 060 (СВ) 0100 м  туман{снег} [диам. гололёда 2 мм]  ?/?  
-0.4 -0.8 97 -1  1013.3  -2.8  719  290           
03 11.03.14 070 (В) 0100 м  туман  ?/?  
-0.5 -1 96 1011.5  -1.7  717  290  -1.4       
06 11.03.14 070 (В) 0100 м  туман [диам. гололёда 10 мм]  ?/?  
-0.4 -0.8 97 1010.8  -0.7  717  289           
09 11.03.14 070 (В) 0100 м  туман [диам. гололёда 11 мм]  ?/?  
+1 +0.5 96 -1  1009.4  -1  716  287           
12 11.03.14 200 (Ю) 10 км  {туман}  10/8 180 м средняя 
[St|Ac und]
+2.6 +2.1 96 +2  1009.1  -1  716  285           
15 11.03.14 320 (СЗ) 1500 м  слаб. морось{туман}  10/10 50 м 
[St]
+2 +1.5 97 +1  1009.9  0.6  716  286    +2.8  0.0     
18 11.03.14 320 (СЗ) 0700 м  слаб. дождь{морось}  ?/?  
+1.8 +1.3 97 1010  716  287           
21 11.03.14 290 (З) 4000 м  слаб. дождь  10/10 120 м 
[Frnb]
+1.4 +0.9 96 1009.5  -0.5  716  287           
00 12.03.14 280 (З) 10 км  слаб. дождь{туман}  10/10 120 м 
[Frnb|Ns]
+1.4 +0.9 96 1007.9  -1.5  715  286           
03 12.03.14 310 (СЗ) 1700 м  слаб. снег{дождь}  10/10 100 м 
[Frnb|Ns]
-0.1 -0.6 97 -2  1007.8  -0.4  715  288  -0.1       
06 12.03.14 300 (СЗ) 1500 м  слаб. снег  10/10 150 м 
[Ns]
-0.1 -0.6 97 -3  1008.5  0.6  715  288  -0.2         
09 12.03.14 320 (СЗ) 4000 м  слаб. снег  10/10 120 м 
[Ns]
+0.1 -0.4 96 -3  1009.2  0.8  716  288           
12 12.03.14 320 (СЗ) 4000 м  слаб. снег  10/10 120 м 
[Ns]
+0.1 -0.4 96 -3  1009.2  0.8  716  288           
15 12.03.14 300 (СЗ) 0300 м  туман  ?/?  
+0.7 +0.2 97 -2  1012  1.5  718  288    +0.7     
18 12.03.14 300 (СЗ) 2000 м  дымка{туман}  10/10 120 м 
[St]
+0.6 +0.1 96 1014  1.8  719  289           
21 12.03.14 280 (З) 4000 м  слаб. снег  10/10 100 м 
[Ns]
+0.2 -0.3 96 +1  1015.1  720  290           
00 13.03.14 330 (СЗ) 0200 м  слаб. снег{туман}  ?/?  
+0.4 -0.1 96 -2  1015.8  0.7  720  290           
03 13.03.14 340 (С) 4000 м  дымка{снег, туман}  10/10 100 м 
[St]
-1 -1.4 97 -3  1017.7  1.5  722  292  -1       
09 13.03.14 290 (З) 20000 м    6/5 600 м верхняя 
[Sc|Ci fib]
+2.8 -2.6 68 +1  1019  0.2  723  289           
12 13.03.14 290 (З) 5{10}  20000 м    10/8 840 м средняя 
[Sc|Ac und]
+2.9 -3.2 64 1018.7  -0.2  723  288           
15 13.03.14 270 (З) 20000 м    9/6 800 м средняя 
[Sc|Ac trans]
+1.7 -4 66 -1  1019.6  0.6  723  290    +3.7       
18 13.03.14 270 (З) 20000 м    3/0 средняя 
[Ac trans]
-0.3 -3.8 77 -3  1020.8  0.7  724  292           
21 13.03.14 250 (З) 7{10}  20000 м    10/0 средняя 
[Ac und]
+0.6 -3.6 73 -3  1021  0.4  724  291           
00 14.03.14 250 (З) 8-11{13}  20000 м    10/4 1000 м средняя 
[Sc|Ac und]
+0.8 -3.8 71 -3  1021.2  0.2  724  291           
03 14.03.14 250 (З) 20000 м    8/0 средняя 
[Ac As]
+1.7 -4.3 64 -2  1021.4  0.3  725  291  -0.5         
06 14.03.14 250 (З) 11-15{15}  20000 м    6/0 средняя 
[Ac trans]
+4.5 -2.9 59 1021.6  0.7  725  288           
09 14.03.14 270 (З) 10-14{16}  20000 м    3/0 средняя 
[Ac trans]
+9.2 -3.8 40 +7  1020.1  -0.5  725  283           
12 14.03.14 270 (З) 9-14{16}  20000 м    5/0 верхняя 
[Ci fib]
+10.7 -1.6 42 +9  1018.4  -1.3  724  281           
15 14.03.14 270 (З) 8-11  20000 м    3/0 средняя 
[Ac trans]
+8.1 -1.1 52 +6  1018.6  -0.3  723  283    +11.1       
18 14.03.14 270 (З) 6{13}  20000 м    ясно 
+4.9 +0.3 72 +2  1019.2  723  286           
21 14.03.14 250 (З) 8-12{12}  20000 м    ясно 
+4.7 -0.1 71 +1  1018.8  -0.5  723  286           
00 15.03.14 260 (З) 9-13{14}  20000 м    6/0 средняя 
[Ac trans]
+4.6 -0.2 71 +1  1018.3  -0.4  723  286           
03 15.03.14 250 (З) 20000 м    9/0 средняя 
[Ac trans]
+4.9 -0.7 67 +2  1018.6  0.3  723  286  +3.7         
06 15.03.14 260 (З) 8-12{13}  20000 м    8/0 средняя 
[Ac trans]
+7.9 -2.1 49 +5  1018.8  0.7  724  284           
09 15.03.14 270 (З) 8-12{13}  20000 м    ясно 
+11.9 -1.4 40 +10  1017.1  -0.9  723  279           
12 15.03.14 270 (З) 7-10{14}  20000 м    6/0 верхняя 
[Ci fib]
+13.7 -1.1 36 +13  1014.7  -1.9  721  277           
15 15.03.14 270 (З) 2{10}  20000 м    9/0 верхняя 
[Ci fib]
+9.5 -0.1 51 +10  1014.3  -1.1  721  281    +13.8       
18 15.03.14 240 (ЮЗ) 20000 м    6/0 верхняя 
[Ci fib]
+4.1 -1 69 +2  1014  -1.4  720  286           
21 15.03.14 260 (З) 20000 м    6/0 верхняя 
[Ci fib]
+5.1 -2 60 +6  1011.3  -2.3  718  284           
00 16.03.14 170 (Ю) 20000 м    4/0 верхняя 
[Ci fib]
+2.6 -1.8 73 +1  1008.7  -2.9  716  286           
03 16.03.14 170 (Ю) 20000 м    3/0 верхняя 
[Ci fib]
+4.1 -2.3 63 +3  1006.5  -1.9  714  284  +2.1         
06 16.03.14 150 (ЮВ) 20000 м    9/0 верхняя 
[Ci fib]
+10.9 -2 40 +11  1003.2  -1.8  713  276           
09 16.03.14 220 (ЮЗ) 20000 м    10/0 средняя 
[Ac und]
+18.2 -6.5 18 +19  998.8  -2.9  711  269           
12 16.03.14 290 (З) 6-10{10}  20000 м    10/0 средняя 
[Ac und]
+16.1 -2.4 28 +16  998.2  -0.8  710  270           
15 16.03.14 290 (З) 10-16  20000 м    10/4 1000 м кучево-дожд., средняя 
[Cb calv|Ac und]
+11.5 -2 39 +9  999.2  -0.1  710  275    +18.6       
18 16.03.14 310 (СЗ) 5{16}  20000 м    10/5 300 м кучево-дожд., средняя 
[Cb calv|Ac und]
+3.9 +0.8 80 +2  1003.1  2.3  712  283           
21 16.03.14 290 (З) 7-11  4000 м  слаб. ливневой снег  10/8 120 м кучево-дожд., средняя 
[Cb cap|Ac und]
+0.1 -0.6 95 -4  1003.5  -0.4  712  287           
00 17.03.14 220 (ЮЗ) 3{11}  3000 м  слаб. ливневой снег  10/8 180 м кучево-дожд., средняя 
[Cb cap|Ac und]
-0.1 -0.6 97 -2  1003.2  -0.2  711  287           
03 17.03.14 240 (ЮЗ) 20000 м  {ливн. осадки}  10/5 600 м кучево-дожд., средняя 
[Cb calv|Ac und]
+1.4 -0.4 88 1001.2  -1.6  710  285  -0.1       
06 17.03.14 140 (ЮВ) 20000 м  {ливн. осадки}  9/3 300 м средняя 
[St|Ac As]
+2.6 +0.6 87 997.7  -3  708  282           
15 17.03.14 270 (З) 13-20  20000 м    6/6 300 м кучево-дожд. 
[Cb calv]
-0.1 -5.6 67 -6  1007.4  -1  714  288    +5.4     
18 17.03.14 270 (З) 11-17{20}  20000 м    3/3 600 м кучево-дожд. 
[Cb calv]
-1 -5.5 71 -6  1010.4  2.7  716  290           
21 17.03.14 260 (З) 11-15{18}  20000 м    ясно 
-0 -5.7 65 -5  1009.1  -1  716  289           
00 18.03.14 260 (З) 14-20{22}  20000 м    8/8 870 м 
[Sc]
+1.4 -5.7 59 -4  1007  -1.7  714  287           
03 18.03.14 250 (З) 13  20000 м    8/5 600 м средняя 
[Sc|Ac trans]
+4.4 -5.2 50 1005.1  -1.2  713  283  -1.2        влажная 
06 18.03.14 250 (З) 18-26{26}  20000 м    6/3 600 м средняя 
[Sc|Ac trans]
+7.3 -0.8 56 +3  1002.5  -2  712  279           
09 18.03.14 260 (З) 19-28{28}  20000 м  в посл. час ливневой дождь  8/4 600 м кучево-дожд., средняя 
[Cb calv|Ac trans]
+11.3 +0.5 47 +8  1001.1  -0.6  711  275           
12 18.03.14 260 (З) 15-24{32}  20000 м  слаб. ливневой дождь  9/6 600 м кучево-дожд., средняя 
[Cb cap|Ac trans]
+5.9 +3.2 83 +1  1004.9  2.7  713  281           
15 18.03.14 290 (З) 12  20000 м  {ливн. осадки}  10/6 600 м кучево-дожд., средняя 
[Cb calv|Ac und]
+4.6 +0.3 74 1008.9  3.5  716  284    +11.6  0.7     
18 18.03.14 290 (З) 10-17{21}  20000 м    4/3 1000 м средняя 
[Sc|Ac trans]
+2.6 -4 62 -2  1013.8  3.5  719  287           
21 18.03.14 280 (З) 10-15{17}  20000 м    3/0 средняя 
[Ac trans]
+2.1 -4 64 -2  1015.9  1.9  721  289           
00 19.03.14 280 (З) 8-12{15}  20000 м    3/0 средняя 
[Ac trans]
+0.9 -4 70 -3  1018.9  2.6  723  291           
03 19.03.14 280 (З) 20000 м    3/0 верхняя 
[Ci fib]
+0.9 -6.2 59 -3  1021  1.9  724  291  +0.7         
06 19.03.14 280 (З) 8-11{12}  20000 м    3/0 средняя 
[Ac trans]
+4.8 -5.3 48 +2  1021.7  1.5  725  288  +0.6         
09 19.03.14 250 (З) 7{14}  20000 м    3/0 средняя 
[Ac trans]
+10.6 -4.8 34 +9  1020  1.5  725  282           
12 19.03.14 270 (З) 6{12}  20000 м    3/3 600 м 
[Sc]
+12.5 -3.7 32 +11  1018.5  -1.1  724  279           
15 19.03.14 250 (З) 20000 м    3/0 верхняя 
[Ci fib]
+10 -3.6 38 +10  1017.5  -1.4  723  281    +12.5       
18 19.03.14 160 (Ю) 20000 м    ясно 
+6.3 -2.3 54 +5  1017  -1.2  722  285           
21 19.03.14 170 (Ю) 20000 м    8/0 средняя, верхняя 
[Ac trans|Ci fib]
+6.9 -1.8 54 +6  1014  -2.7  720  283           
00 20.03.14 210 (ЮЗ) 20000 м    10/0 средняя, верхняя 
[Ac und|Ci fib]
+6.8 -1.5 55 +6  1012.2  -2.7  719  283           
03 20.03.14 170 (Ю) 20000 м    10/0 средняя 
[Ac und]
+8.2 -3.7 43 +8  1010.2  -1.7  717  281  +5.1         
06 20.03.14 190 (Ю) 4-14{14}  20000 м    10/4 300 м кучево-дожд., средняя 
[Cb calv|Ac und]
+10.6 -3.9 36 +10  1008.7  -1.7  717  278           
09 20.03.14 360 (С) 6{14}  20000 м    10/4 600 м кучево-дожд., средняя 
[Cb calv|Ac und]
+9.8 +1.2 55 +8  1008.4  -0.4  716  278           
12 20.03.14 260 (З) 13-18  3000 м  ливневой дождь  10/8 500 м кучево-дожд., средняя 
[Cb calv|Ac und]
+7 +5.1 88 +3  1010.9  1.9  718  281           
15 20.03.14 280 (З) 10 км  слаб. ливневой дождь  10/8 200 м кучево-дожд., средняя 
[Cb cap|Ac und]
+6.6 +5.1 90 +4  1012.9  1.8  719  282    +12.7     
18 20.03.14 270 (З) 8-13  4000 м  дымка{ливн. осадки}  10/8 210 м средняя 
[St|Ac und]
+5.6 +4.1 90 +3  1016.2  2.8  721  284           
00 21.03.14 260 (З) 13-19  20000 м  {ливн. осадки}  10/6 420 м кучево-дожд., средняя 
[Cb calv|Ac und]
+5.4 +3.6 88 +1  1016  -0.5  721  284           
03 21.03.14 290 (З) 11  20000 м  {ливн. осадки}  10/5 300 м кучево-дожд., средняя 
[Cb calv|Ac und]
+5.6 +3.3 85 +2  1017.2  1.2  722  285  +4.9       
06 21.03.14 310 (СЗ) 11  10 км  {ливн. осадки}  10/8 300 м кучево-дожд., средняя 
[Cb calv|Ac und]
+4 +1.7 85 1020.4  2.7  724  287  +3.9         
09 21.03.14 320 (СЗ) 8-12{17}  20000 м    10/8 480 м кучево-дожд., средняя 
[Cb calv|Ac und]
+2.7 -1.3 75 -1  1024.7  3.7  727  290           
12 21.03.14 330 (СЗ) 6{13}  20000 м    6/6 840 м 
[Sc]
+4.5 -2.2 62 +2  1026.6  2.2  729  289           
18 21.03.14 110 (В) 20000 м    8/0 средняя, верхняя 
[Ac trans|Ci sp]
-0.9 -2.5 89 -2  1030.8  1.3  731  296           
21 21.03.14 120 (ЮВ) 20000 м    ясно 
-2.7 -4.1 90 -5  1031.3  0.1  731  298           
00 22.03.14 140 (ЮВ) 20000 м    ясно 
-2.6 -3.9 91 -5  1030.8  -0.4  731  298           
03 22.03.14 120 (ЮВ) 20000 м    ясно 
-3.6 -4.9 91 -7  1030.9  -0.2  730  299  -3.6         
06 22.03.14 140 (ЮВ) 20000 м    ясно 
+2.8 -0.4 79 1028.9  -0.6  730  291           
09 22.03.14 140 (ЮВ) 20000 м    ясно 
+9.8 -0.3 49 +9  1026.2  -1.2  729  284           
12 22.03.14 130 (ЮВ) 20000 м    ясно 
+13.1 -2.9 33 +12  1023.9  -1.6  728  280           
18 22.03.14 130 (ЮВ) 20000 м    8/0 верхняя 
[Ci fib]
+5.9 -3.6 50 +4  1023.5  -0.3  727  287           
21 22.03.14 130 (ЮВ) 20000 м    3/0 верхняя 
[Ci sp]
+3.3 -3.5 61 +1  1022.5  -1.4  725  289           
00 23.03.14 160 (Ю) 20000 м    3/0 верхняя 
[Ci fib]
+1.5 -3.7 68 -1  1021.4  -1.4  724  291           
03 23.03.14 130 (ЮВ) 20000 м    4/0 верхняя 
[Ci fib]
+2.7 -4 61 +1  1021.2  0.1  725  289  +1         
06 23.03.14 130 (ЮВ) 20000 м    3/0 верхняя 
[Ci fib]
+8.3 -1.5 50 +6  1020.2  0.2  725  283           
09 23.03.14 120 (ЮВ) 6-10{11}  20000 м    3/0 верхняя 
[Ci fib]
+17.1 -5.7 21 +17  1017.8  -0.7  724  275           
12 23.03.14 120 (ЮВ) 10-13{14}  20000 м    1/0 верхняя 
[Ci fib]
+18.9 -5.6 18 +19  1016  -1.4  723  273           
15 23.03.14 110 (В) 8-10  20000 м    1/0 верхняя 
[Ci fib]
+14.4 -3.2 29 +13  1016.7  -0.1  723  277    +19.2       
18 23.03.14 110 (В) 8-11{11}  20000 м    ясно 
+9 -3.4 41 +7  1018.2  0.4  723  282           
21 23.03.14 130 (ЮВ) 4{11}  20000 м    ясно 
+4.2 -5 51 +2  1019.3  0.1  723  288           
00 24.03.14 120 (ЮВ) 20000 м    ясно 
+1.6 -4.4 64 -1  1018.9  -0.8  723  290           
03 24.03.14 140 (ЮВ) 20000 м    ясно 
+1.3 -3.6 70 -1  1019  723  290  +0.8         
06 24.03.14 110 (В) 20000 м    ясно 
+5.3 -1.1 63 +3  1019.4  1.2  724  286           
09 24.03.14 110 (В) 20000 м    ясно 
+12.2 +1.5 48 +11  1017.8  -0.3  723  279           
12 24.03.14 120 (ЮВ) 20000 м    ясно 
+14.6 +3.3 47 +14  1016.4  -0.9  723  276           
15 24.03.14 140 (ЮВ) 20000 м    ясно 
+11.7 +1.8 51 +11  1017.2  0.2  723  279    +14.8       
18 24.03.14 150 (ЮВ) 20000 м    ясно 
+6.7 +2.2 73 +6  1017.8  -0.3  723  284           
21 24.03.14 140 (ЮВ) 20000 м    ясно 
+4.6 +2.1 84 +2  1016.6  -1.6  722  286           
00 25.03.14 110 (В) 20000 м    ясно 
+2 +0.8 92 1015.7  -1.3  721  288           
03 25.03.14 100 (В) 2000 м  дымка  ясно 
-1 -1.7 95 -3  1015.5  -0.8  720  291  -1.1         
06 25.03.14 130 (ЮВ) 20000 м  {туман}  ясно 
+5.9 +3.1 82 +5  1013.9  0.1  720  283           
09 25.03.14 080 (В) 20000 м    ясно 
+14.3 +4.4 51 +14  1011.6  -0.7  719  275           
12 25.03.14 080 (В) 20000 м    ясно 
+17.2 +4.8 44 +17  1010.1  -0.9  719  272           
15 25.03.14 060 (СВ) 20000 м    ясно 
+10.7 +4.8 67 +10  1011.4  -0.1  719  278    +17.6       
18 25.03.14 150 (ЮВ) 20000 м    ясно 
+6 +3.5 84 +4  1013  0.6  719  283           
21 25.03.14 150 (ЮВ) 20000 м    ясно 
+5 +3.1 88 +3  1012.7  -0.5  719  284           
00 26.03.14 110 (В) 20000 м    ясно 
+4.1 +1.8 85 +3  1012.4  -0.4  719  285           
03 26.03.14 120 (ЮВ) 10 км    1/0 верхняя 
[Ci fib]
+3 +2.2 94 +2  1012.7  0.1  719  286  +3         
06 26.03.14 300 (СЗ) 20000 м    ясно 
+17.2 -3.7 24 +19  1011  0.9  719  273  +2.8         
09 26.03.14 360 (С) 20000 м    4/0 верхняя 
[Ci fib]
+20.5 +1.7 29 +21  1010.9  0.5  720  269           
12 26.03.14 020 (С) 20000 м    3/0 верхняя 
[Ci fib]
+22 -4.3 17 +22  1010.9  0.2  720  269           
15 26.03.14 080 (В) 20000 м    ясно 
+16.1 +2.8 41 +16  1012.3  0.4  720  273    +22       
18 26.03.14 260 (З) 20000 м    3/0 средняя 
[Ac trans]
+12.3 +3.4 55 +14  1014.2  1.1  721  277           
21 26.03.14 230 (ЮЗ) 20000 м    ясно 
+10.6 +1.9 55 +11  1014.2  -0.3  721  279           
00 27.03.14 340 (С) 20000 м    ясно 
+8.8 +3.7 70 +8  1014.4  0.1  721  281           
03 27.03.14 300 (СЗ) 20000 м    8/0 средняя, верхняя 
[Ac trans|Ci]
+8.1 +4 75 +8  1015.3  0.7  721  282  +4.6         
06 27.03.14 260 (З) 20000 м    4/0 верхняя 
[Ci fib]
+12.4 +4.8 60 +11  1015.8  1.3  722  278           
09 27.03.14 280 (З) 9-14{14}  20000 м    9/1 600 м верхняя 
[Sc|Ci]
+13.9 +6.1 59 +12  1015.6  0.1  722  276           
12 27.03.14 280 (З) 10-14{14}  20000 м    10/6 800 м кучево-дожд., средняя 
[Cb calv|Ac und]
+12.2 +6.1 66 +10  1016.6  0.6  723  278           
15 27.03.14 280 (З) 10 км    10/8 600 м кучево-дожд., средняя 
[Cb calv|Ac und]
+9.3 +7.4 88 +7  1018.1  0.9  723  281    +15.3       
18 27.03.14 300 (СЗ) 5{11}  20000 м  в посл. час ливневой дождь  10/8 800 м кучево-дожд., средняя 
[Cb calv|Ac und]
+8.1 +6 87 +7  1018.9  0.5  724  282           
21 27.03.14 280 (З) 20000 м    10/6 870 м кучево-дожд., средняя 
[Cb calv|Ac und]
+7.8 +5.3 84 +7  1018  -0.9  723  282           
00 28.03.14 280 (З) 10 км    8/5 360 м средняя 
[St|Ac trans]
+7.1 +5.5 90 +6  1017.1  -1  722  283           
03 28.03.14 280 (З) 10 км    10/4 600 м средняя 
[Sc|Ac und]
+5.7 +4.4 91 +5  1016.3  -1  722  284  +5.7    0.0     
06 28.03.14 280 (З) 20000 м    8/4 600 м средняя 
[Sc|Ac trans]
+8.4 +4.6 77 +7  1015.3  -0.4  721  281  +5         
09 28.03.14 270 (З) 20000 м    6/6 600 м кучево-дожд. 
[Cb calv]
+12.4 +2.8 52 +11  1012  -2.4  719  277           
12 28.03.14 260 (З) 6{11}  20000 м    8/8 600 м кучево-дожд. 
[Cb calv]
+13.8 +2.6 47 +13  1009.2  -2.4  718  275           
15 28.03.14 280 (З) 10 км  слаб. ливневой дождь  10/6 600 м кучево-дожд., средняя 
[Cb cap|Ac und]
+8.1 +5.6 84 +7  1008.4  -1.7  716  279    +14.2     
18 28.03.14 290 (З) 10 км  слаб. ливневой дождь  10/6 800 м кучево-дожд., средняя 
[Cb cap|Ac und]
+8 +6.1 88 +6  1006.4  -2  715  279           
21 28.03.14 280 (З) 5{10}  10 км  слаб. ливневой дождь  10/6 500 м кучево-дожд., средняя 
[Cb cap|Ac und]
+6.1 +4.6 90 +4  1004.1  -2.5  713  280           
00 29.03.14 280 (З) 5{10}  10 км  в посл. час ливневой дождь  10/8 300 м кучево-дожд., средняя 
[Cb calv|Ac und]
+5.8 +4.3 90 +4  1001.3  -2.7  711  280           
03 29.03.14 270 (З) 12  4000 м  ливневой дождь  10/8 300 м кучево-дожд., средняя 
[Cb cap|Ac und]
+5.8 +4.2 89 +2  998.5  -2.6  709  279  +5.6       
06 29.03.14 330 (СЗ) 2000 м  слаб. ливневой снег  10/8 50 м кучево-дожд., средняя 
[Cb cap|Ac und]
-1 -1.7 95 -5  999.5  -0.4  709  287  -1         
09 29.03.14 340 (С) 8-11  0400 м  ливневой снег  10/8 60 м кучево-дожд., средняя 
[Cb cap|Ac und]
-3.5 -4.5 93 -8  1002.4  2.3  710  290           
12 29.03.14 330 (СЗ) 6-11  4000 м  слаб. ливневой снег  10/8 450 м кучево-дожд., средняя 
[Cb cap|Ac und]
-4.4 -6 89 -9  1006  3.1  713  292           
15 29.03.14 350 (С) 20000 м  {ливн. осадки}  8/5 300 м кучево-дожд., средняя 
[Cb calv|Ac trans]
-4.9 -6.7 87 -9  1007.3  1.2  713  293    +6.4     
18 29.03.14 290 (З) 5{10}  20000 м  в посл. час ливневой снег  9/5 540 м кучево-дожд., средняя 
[Cb calv|Ac trans]
-6.2 -7.5 90 -10  1010.4  2.6  716  296           
21 29.03.14 260 (З) 20000 м  в посл. час ливневой снег  5/5 600 м кучево-дожд. 
[Cb calv]
-7.2 -8.9 88 -12  1012.1  1.4  717  297           
00 30.03.14 270 (З) 8-11{13}  20000 м  {ливн. осадки}  3/3 600 м 
[Sc diur, vesp]
-6.9 -9.6 81 -13  1012.4  0.3  717  297           
03 30.03.14 270 (З) 10  20000 м  позёмок{ливн. осадки}  10/8 300 м кучево-дожд., средняя 
[Cb calv|Ac und]
-6.1 -8.1 86 -12  1013.4  1.1  718  297  -7.5    0.0     
06 30.03.14 270 (З) 12  4000 м  слаб. ливневой снег  9/8 270 м кучево-дожд., средняя 
[Cb cap|Ac trans]
-4.8 -6.9 85 -11  1014.3  1.1  719  295           
09 30.03.14 270 (З) 11  20000 м  позёмок{ливн. осадки}  9/8 450 м кучево-дожд., средняя 
[Cb calv|Ac trans]
-3.1 -6.1 80 -9  1014  719  293           
12 30.03.14 270 (З) 10-14  20000 м  {ливн. осадки}  8/6 540 м кучево-дожд., средняя 
[Cb calv|Ac trans]
-1.1 -5 75 -6  1013.6  719  291           
15 30.03.14 260 (З) 9-12  20000 м    5/3 600 м кучево-дожд., средняя 
[Cb calv|Ac trans]
-1.4 -4.7 78 -6  1014.2  0.5  719  292    -0.9  0.0     
18 30.03.14 260 (З) 9-12{14}  20000 м    3/3 600 м 
[Sc diur, vesp]
-2.2 -5.2 80 -7  1015.8  1.4  720  293           
21 30.03.14 250 (З) 9-13{13}  20000 м    3/3 600 м 
[Sc diur, vesp]
-2.4 -6 76 -8  1015.7  0.1  720  293           
00 31.03.14 250 (З) 9-12{14}  20000 м    ясно 
-2.5 -7.3 70 -8  1015.3  -0.4  720  293           
03 31.03.14 260 (З) 10  20000 м    ясно 
-1.4 -7.9 61 -7  1014.7  -0.4  719  292  -2.8      мокрый или
старый снег
50-90% 
06 31.03.14 260 (З) 10-16{17}  20000 м    1/0 средняя 
[Ac trans]
+1.9 -4.8 61 -3  1014.7  0.7  720  288           
09 31.03.14 260 (З) 12-16{18}  20000 м    8/1 600 м средняя, верхняя 
[Sc|Ac As|Ci sp]
+5.3 -2.6 57 +1  1013.8  -0.2  720  285           
12 31.03.14 270 (З) 9-15{18}  20000 м    9/4 600 м средняя, верхняя 
[Sc|Ac As|Ci]
+6.9 -1.8 54 +4  1012.8  -0.6  719  283           
15 31.03.14 260 (З) 8-12  20000 м    8/3 1000 м средняя, верхняя 
[Sc|Ac trans|Ci]
+5.2 -2.5 57 +2  1013.1  719  285    +7.2       
18 31.03.14 250 (З) 7{12}  20000 м    3/0 верхняя 
[Ci fib]
+2.4 -2.8 68 -1  1014  0.3  719  288           
21 31.03.14 240 (ЮЗ) 6{10}  20000 м    3/0 средняя 
[Ac trans]
+1.1 -4.6 66 -2  1013.3  -0.9  719  289           
00 01.04.14 250 (З) 20000 м    1/0 верхняя 
[Ci fib]
+1.7 -5.4 59 -1  1012.4  -0.7  718  288           
03 01.04.14 240 (ЮЗ) 20000 м    3/0 верхняя 
[Ci fib]
-0.5 -5.4 69 -3  1012.2  -0.7  718  290  -0.5        замёрзшая 
Время (UTC), дата Ветер
(°,м/с) 
Видим.   Явления Облачность Т
(°С)
Тd
(°С)
f(%) Тe
(°С)
Pmin
(гПа)
dP
(гПа)
Po
(мм)
O2
(г/м3)
Тmin Tmax R s Состояние
почвы